Location: Unspecified
(0.0000°N, 0.0000°E)
Time: 00:24:03
(UTC+00:00)

ITAMSAT 1 - Pass Details

Date: 15 December 2017
Orbit: 785 x 796 km, 98.9° (Epoch: 20 July)

Event Time Altitude Azimuth Distance (km) Brightness Sun altitude
Exits shadow 03:50:46 16° 206° (SSW) 1,939 9.7 -28.3°
Drops below altitude 10° 03:51:50 10° 203° (SSW) 2,346 10.1 -28.1°
Sets 03:54:12 0° 200° (SSW) 3,278 11.0 -27.5°
